Location: Kershaw
(34.5481°N, 80.5823°W)
Time: 07:23:56
(UTC+00:00)

Explorer 7 - Pass Details

Date: 11 October 2022
Orbit: 481 x 665 km, 50.3° (Epoch: 28 November)

Event Time Altitude Azimuth Distance (km) Brightness Sun altitude
Rises 14:54:39 0° 293° (WNW) 2,990 10.1 37.6°
Reaches altitude 10° 14:58:14 10° 320° (NW) 2,088 9.4 38.1°
Maximum altitude 15:00:35 13° 349° (N) 1,872 9.2 38.4°
Drops below altitude 10° 15:02:55 10° 19° (NNE) 2,086 9.6 38.7°
Sets 15:06:30 0° 46° (NE) 2,983 10.5 39.2°
